Weather History for KCRW - January, 2014

Change the Weather History Date:

Friday, January 17, 2014

  Actual Average Record
Temperature  
Mean Temperature 35 °F 34 °F  
Max Temperature 48 °F 42 °F 66 °F (1928)
Min Temperature 21 °F 26 °F -13 °F (1982)
Degree Days  
Heating Degree Days 30 31  
Month to date heating degree days 553 526  
Since 1 July heating degree days 2303 2266  
Cooling Degree Days 0 0  
Month to date cooling degree days 0 0  
Year to date cooling degree days 0 0  
Moisture  
Dew Point 27 °F    
Average Humidity 70    
Maximum Humidity 100    
Minimum Humidity 39    
Precipitation  
Precipitation 0.07 in 0.09 in 0.95 in (1994)
Month to date precipitation 1.95 1.63  
Year to date precipitation 1.95 1.63  
Snow  
Snow 0.10 in - - ()
Month to date snowfall 5.0  
Since 1 September snowfall 11.7  
Snow Depth T in    
Sea Level Pressure  
Sea Level Pressure 29.88 in    
Wind  
Wind Speed 9 mph (WSW)    
Max Wind Speed 24 mph    
Max Gust Speed 34 mph    
Visibility 7 miles    
Events Rain , Snow    
T = Trace of Precipitation, MM = Missing Value Source: NWS Daily Summary

Daily Weather History Graph

Daily Weather History Graph

Search for Another Location

Airport or City:

Trip Planner

Search our weather history database for the weather conditions in past years. The results will help you decide how hot, cold, wet, or windy it might be!

Date:

Astronomy

Jan. 17, 2014 Rise Set
Actual Time 7:41 AM EST 5:32 PM EST
Civil Twilight 7:12 AM EST 6:00 PM EST
Nautical Twilight 6:40 AM EST 6:33 PM EST
Astronomical Twilight 6:08 AM EST 7:04 PM EST
Moon 7:15 PM EST (1/17) 8:10 AM EST (1/17)
Length of Visible Light 10h 48m
Length of Day
9h 50m
Full, 98% of the Moon is Illuminated
Jan 17
Full
Jan 24
Last Quarter
Jan 30
New
Feb 6
First Quarter
Feb 14
Full

Hourly Weather History & Observations

Time (EST) Temp. Windchill Dew Point Humidity Pressure Visibility Wind Dir Wind Speed Gust Speed Precip Events Conditions
12:54 AM 32.0 °F - 30.9 °F 96% 29.88 in 4.0 mi Calm Calm - 0.00 in Snow Light Snow
1:54 AM 32.0 °F - 30.9 °F 96% 29.87 in 10.0 mi Calm Calm - 0.00 in   Overcast
2:54 AM 33.1 °F - 30.0 °F 89% 29.86 in 10.0 mi Calm Calm - N/A   Overcast
3:54 AM 32.0 °F - 30.0 °F 92% 29.85 in 10.0 mi Calm Calm - N/A   Overcast
4:54 AM 35.1 °F 26.4 °F 28.0 °F 76% 29.85 in 10.0 mi South 12.7 mph - N/A   Overcast
5:45 AM 34.0 °F 28.0 °F 32.0 °F 92% 29.83 in 6.0 mi South 6.9 mph - 0.00 in Snow Light Snow
5:54 AM 33.1 °F 28.7 °F 32.0 °F 96% 29.85 in 6.0 mi South 4.6 mph - 0.00 in Snow Light Snow
6:40 AM 33.1 °F 28.7 °F 32.0 °F 96% 29.84 in 10.0 mi South 4.6 mph - 0.00 in Snow Light Snow
6:54 AM 33.1 °F 28.7 °F 32.0 °F 96% 29.86 in 10.0 mi South 4.6 mph - 0.00 in Snow Light Snow
8:54 AM 34.0 °F 31.0 °F 32.0 °F 92% 29.87 in 10.0 mi ENE 3.5 mph - 0.00 in   Scattered Clouds
9:54 AM 39.0 °F 33.4 °F 30.0 °F 70% 29.87 in 10.0 mi SSE 8.1 mph - N/A   Partly Cloudy
10:54 AM 42.1 °F 37.1 °F 30.9 °F 65% 29.85 in 10.0 mi SSE 8.1 mph - N/A   Scattered Clouds
11:54 AM 46.0 °F 41.9 °F 28.9 °F 51% 29.81 in 10.0 mi SSW 8.1 mph - N/A   Scattered Clouds
12:54 PM 48.0 °F - 25.0 °F 41% 29.76 in 10.0 mi WSW 12.7 mph - N/A   Mostly Cloudy
1:41 PM 39.9 °F 31.1 °F 32.0 °F 73% 29.77 in 5.0 mi SSW 17.3 mph 23.0 mph 0.00 in Rain Light Rain
1:54 PM 39.9 °F 31.8 °F 33.1 °F 77% 29.78 in 7.0 mi SW 15.0 mph - 0.01 in Rain Light Rain
2:43 PM 37.9 °F 29.6 °F 33.1 °F 83% 29.79 in 1.0 mi West 13.8 mph 28.8 mph 0.00 in Rain , Snow Light Rain
2:54 PM 35.1 °F 26.9 °F 33.1 °F 92% 29.82 in 1.0 mi West 11.5 mph 24.2 mph 0.01 in Rain , Snow Light Snow
3:01 PM 36.0 °F 29.0 °F 33.1 °F 89% 29.80 in 6.0 mi WSW 9.2 mph 21.9 mph 0.00 in Rain , Snow Light Snow
3:22 PM 35.1 °F 28.6 °F 33.1 °F 92% 29.81 in 1.5 mi WSW 8.1 mph - 0.00 in Snow Light Snow
3:36 PM 35.1 °F 30.1 °F 33.1 °F 92% 29.81 in 7.0 mi WSW 5.8 mph - 0.01 in Snow Light Snow
3:54 PM 35.1 °F 27.4 °F 33.1 °F 92% 29.84 in 2.0 mi WSW 10.4 mph - 0.01 in Snow Light Snow
4:54 PM 34.0 °F 28.8 °F 33.1 °F 96% 29.88 in 2.0 mi WSW 5.8 mph - 0.03 in Snow Light Snow
5:54 PM 32.0 °F 23.6 °F 26.1 °F 79% 29.93 in 2.0 mi West 10.4 mph 21.9 mph 0.01 in Snow Light Snow
5:57 PM 32.0 °F 23.0 °F 26.1 °F 79% 29.91 in 6.0 mi West 11.5 mph 20.7 mph 0.00 in Snow Light Snow
6:54 PM 28.9 °F 16.9 °F 24.1 °F 82% 29.99 in 4.0 mi WNW 17.3 mph 24.2 mph 0.00 in Snow Light Snow
7:54 PM 28.0 °F 17.5 °F 18.0 °F 66% 30.00 in 8.0 mi West 12.7 mph 21.9 mph 0.00 in   Overcast
8:39 PM 26.1 °F 16.2 °F 16.0 °F 66% 30.00 in 9.0 mi West 10.4 mph 17.3 mph N/A   Mostly Cloudy
8:54 PM 26.1 °F 12.0 °F 14.0 °F 60% 30.03 in 10.0 mi West 20.7 mph 28.8 mph N/A   Mostly Cloudy
9:54 PM 24.1 °F 12.0 °F 14.0 °F 65% 30.04 in 10.0 mi West 13.8 mph 20.7 mph N/A   Overcast
10:54 PM 21.9 °F 9.2 °F 8.1 °F 55% 30.05 in 10.0 mi WSW 13.8 mph 23.0 mph N/A   Overcast
11:54 PM 21.0 °F 10.6 °F 10.9 °F 65% 30.04 in 10.0 mi West 9.2 mph - N/A   Overcast